Location: Narragansett
(41.4496°N, 71.4488°W)
Time: 01:57:01
(UTC+00:00)

X-37B - Pass Details

Date: 03 October 2021
Orbit: 385 x 389 km, 45.0° (Epoch: 13 October)

Event Time Altitude Azimuth Distance (km) Brightness Sun altitude
Exits shadow 08:34:20 25° 97° (E) 818 2.8 -25.0°
Drops below altitude 10° 08:35:50 10° 103° (ESE) 1,410 4.2 -24.7°
Sets 08:37:55 0° 105° (ESE) 2,263 5.4 -24.4°
